Flag for Switzerland Weather past 2 weeks in Einsiedeln, Schwyz, Switzerland

Now
63 °F

Overcast.


Feels Like: 63 °F
Forecast: 53 / 72 °F
Wind: 3 mph from Southeast

Location: Altdorf

Current Time: Aug 1, 2015 at 12:08:26 PM

Latest Report: Aug 1, 2015 at 11:00 AM


Visibility: 9 mi

Pressure: 30.00 "Hg (27.03 "Hg at 887m altitude)

Humidity: 89%

Dew point: 60 °F

Location of EinsiedelnLocation

Historic Weather in Einsiedeln — Graph

°F

Einsiedeln temperature yesterday

Maximum temperature yesterday: 72 °F (at 3:00 PM)
Minimum temperature yesterday: 49 °F (at 7:00 AM)
Average temperature yesterday: 62 °F

Past Weeks' High & Low Weather Summary

 TemperatureHumidityPressure
High87 °F (Jul 22, 2:00 PM)98% (Jul 20, 2:00 AM)30.12 "Hg (Jul 20, 2:00 AM)
Low49 °F (Jul 31, 7:00 AM)38% (Jul 17, 9:00 PM)29.66 "Hg (Jul 24, 5:00 PM)
Average68 °F71%29.93 "Hg
* Reported Jul 17 10:00 AM — Aug 1 10:00 AM, Einsiedeln, Weather by CustomWeather, © 2015

Note: Actual official high and low records may vary slightly from our data, if they occured in-between our weather recording intervals... More about our weather records

Advertising

Einsiedeln weather history for previous 24 hours

 ConditionsComfort  
Time TempWeatherWind HumidityBarometerVisibility
10:00 AM
Sat, Aug 1
62 °FCool.3 mph93%30.01 "HgN/A
9:00 AM61 °FCool.2 mph95%30.00 "HgN/A
8:00 AM61 °FRain. Overcast.2 mph93%29.98 "Hg2 mi
7:00 AM65 °FMild.16 mph74%29.91 "HgN/A
5:00 AM61 °FPassing clouds.1 mph85%29.88 "Hg16 mi
4:00 AM62 °FCool.2 mph82%29.90 "HgN/A
3:00 AM62 °FCool.1 mph83%29.91 "HgN/A
2:00 AM60 °FPassing clouds.3 mph87%29.90 "Hg16 mi
1:00 AM63 °FMild.1 mph78%29.88 "HgN/A
12:00 AM64 °FMild.1 mph78%29.90 "HgN/A
11:00 PM
Fri, Jul 31
64 °FOvercast.1 mph77%29.90 "Hg16 mi
10:00 PM65 °FMild.2 mph75%29.90 "HgN/A
9:00 PM68 °FMild.2 mph66%29.88 "HgN/A
8:00 PM69 °FOvercast.1 mph67%29.87 "Hg16 mi
7:00 PM71 °FMild.3 mph53%29.86 "HgN/A
6:00 PM71 °FMild.3 mph55%29.87 "HgN/A
5:00 PM72 °FOvercast.5 mph53%29.87 "Hg16 mi
4:00 PM71 °FMild.5 mph55%29.88 "HgN/A
3:00 PM72 °FMild.9 mph60%29.89 "HgN/A
2:00 PM71 °FMild.7 mph60%29.91 "HgN/A
1:00 PM68 °FMild.6 mph59%29.93 "HgN/A
12:00 PM64 °FMild.7 mph67%29.96 "HgN/A
Weather by CustomWeather, © 2015

See weather overviewHow to use our weather pages